Tracking 30703 objects as of 13-Jun-2025
HD Live streaming from Space Station
objects crossing your sky now

IRIDIUM 69

Track IRIDIUM 69 now!
10-day predictions
IRIDIUM 69 is classified as:


NORAD ID: 25319
Int'l Code: 1998-026A
Perigee: 759.4 km
Apogee: 765.5 km
Inclination: 86.4 °
Period: 99.9 minutes
Semi major axis: 7133 km
RCS: 4.3416 m2 (large)
Launch date: May 2, 1998
Source: United States (US)
Launch site: Taiyaun Space Center, China (TSC)
Your satellite tracking list
Your tracking list is empty




NASA's NSSDC Master Catalog

Two Line Element Set (TLE):
1 25319U 98026A   25164.51176784  .00000614  00000-0  18497-3 0  9995
2 25319  86.3970  96.9765 0004226  60.1556 300.0064 14.40966995422536
Source of the keplerian elements: AFSPC